Regional Weather Roundup
Issued by NWS

Home | Current Version | Previous Version | Graphics & Text | Print | Product List | Glossary On
Versions: 1 2 3 4 5 6 7 8 9 10 11 12 13 14 15 16 17 18 19 20 21 22 23 24 25 26 27 28 29 30 31 32 33 34 35 36 37 38 39 40 41 42 43 44 45 46 47 48 49 50
000
ASUS45 KABQ 011610
RWRNM
WEATHER ROUNDUP FOR NEW MEXICO
NATIONAL WEATHER SERVICE ALBUQUERQUE NM
1000 AM MDT MON SEP 01 2014

NOTE: "FAIR" MEANS FEW OR NO CLOUDS BELOW 12,000 FEET AGL WITH NO
       SIGNIFICANT WEATHER OR OBSTRUCTIONS TO VISION.

      THIS PRODUCT IS RELEASED AS TWO VERSIONS.  ONE VERSION NEAR
      THE TOP OF THE HOUR CONTAINING PRELIMINARY DATA FROM ALBUQUERQUE
      AND OTHER STATIONS.  A FINAL VERSION WITH ADDITIONAL DATA IS
      ISSUED ABOUT 10 MINUTES AFTER THE HOUR.

NMZ501-503-504-510>518-011700-
NORTHWEST PLATEAU/NORTHCENTRAL MOUNTAINS

CITY           SKY/WX    TMP DP  RH WIND       PRES   REMARKS
FARMINGTON     SUNNY     71  41  33 E3        30.12R
LOS ALAMOS     SUNNY     70  36  28 E5        30.25R
SANTA FE       SUNNY     76  39  26 SW8       30.18R
ANGEL FIRE     FAIR      64  37  37 SW7       30.30S

$$
NMZ402-403-502-505>509-011700-
WESTCENTRAL MOUNTAINS/SOUTHWEST MOUNTAINS

CITY           SKY/WX    TMP DP  RH WIND       PRES   REMARKS
GALLUP         SUNNY     73  39  29 SW9       30.22S
SILVER CITY    SUNNY     81  37  21 NW15      30.19R

$$
NMZ407-409-411-412-011700-
SOUTHERN DESERTS

CITY           SKY/WX    TMP DP  RH WIND       PRES   REMARKS
LORDSBURG      FAIR      81  37  21 W9        30.10S
DEMING         SUNNY     84  42  22 S6        30.08R
LAS CRUCES     SUNNY     84  40  20 NE3       30.10R
HOLLOMAN AFB   SUNNY     83  42  23 E2        30.04S
ALAMOGORDO     SUNNY     82  41  23 NW3       30.06S
T OR C         SUNNY     82  40  22 VRB3      30.11R

$$
NMZ519>523-011700-
CENTRAL VALLEYS/CENTRAL HIGHLANDS

CITY           SKY/WX    TMP DP  RH WIND       PRES   REMARKS
ALBUQUERQUE    MOSUNNY   76  40  27 S6        30.15R
DOUBLE EAGLE   MOSUNNY   75  41  29 VRB7      30.18R
MORIARTY ARPT  FAIR      77  40  26 W10       30.19S
CLINES CORNERS SUNNY     74  39  28 NW16      30.22R
BELEN          FAIR      79  40  24 CALM      30.14R
SOCORRO        FAIR      79  42  26 CALM      30.11S

$$
NMZ524>526-539-540-011700-
SOUTHCENTRAL MOUNTAINS

CITY           SKY/WX    TMP DP  RH WIND       PRES   REMARKS
RUIDOSO        NOT AVBL

$$
NMZ527>531-011700-
NORTHEAST HIGHLANDS/NORTHEAST PLAINS

CITY           SKY/WX    TMP DP  RH WIND       PRES   REMARKS
LAS VEGAS      SUNNY     74  41  30 VRB6      30.18S
RATON          SUNNY     70  43  37 SE5       30.14F
CLAYTON        SUNNY     73  48  41 NE10      30.08R

$$
NMZ532>537-011700-
EASTCENTRAL PLAINS

CITY           SKY/WX    TMP DP  RH WIND       PRES   REMARKS
TUCUMCARI      SUNNY     78  53  41 VRB7      30.01S
CANNON AFB     SUNNY     79  54  41 N9        30.02R
CLOVIS AIRPORT   N/A     77  54  44 N14       30.04R

$$
NMZ028-029-538-011700-
SOUTHEAST PLAINS

CITY           SKY/WX    TMP DP  RH WIND       PRES   REMARKS
ROSWELL        SUNNY     86  44  23 CALM      29.98S
CARLSBAD       SUNNY     88  56  33 VRB3      29.96S
HOBBS          SUNNY     86  57  37 S10       29.99S


$$


USA.gov is the U.S. government's official web portal to all federal, state and local government web resources and services.